Terminal Aerodrome Forecast
Issued by NWS Denver/Boulder, CO

Home | Current Version | Previous Version | Text Only | Print | Product List | Glossary On
Versions: 1 2 3 4 5 6 7 8 9 10 11 12 13 14 15 16 17 18 19 20 21 22 23 24 25 26 27 28 29 30 31 32 33 34 35 36 37 38 39 40 41 42 43 44 45 46 47 48 49 50
000
FTUS45 KBOU 302340
TAFDEN
TAF
KDEN 302340Z 3100/0106 04012KT P6SM SCT080 SCT150
     FM310100 15012KT P6SM SCT080 BKN150
     FM310400 19009KT P6SM SCT100
     FM312000 14012KT P6SM SCT080 SCT120
     FM010000 16012G20KT P6SM SCT080 BKN120=

USA.gov is the U.S. government's official web portal to all federal, state and local government web resources and services.